Content
SEND FEEDBACK

Daily
Averages
Monthly
Summary
United States of America

WOLCOTT, CONNECTICUT


Home > North America > United States > Connecticut
Elevation: 850 feet     Latitude: 41 37N     Longitude: 072 57W

WEATHER
 
SELECT A DAY
Number of Records: 168,891;   Date Range: 8/4/99 - 8/12/14
 
SHARE

PRINT THIS DATA

[ ← Previous Day ]
WEATHER ALMANAC - JANUARY 31, 2013
[ Next Day → ]
[ °C ]   °F
Weather ElementAverageHighLow
Temperature50.2 °F60.8 °F (5:05 am)30.9 °F (11:53 pm)
Dewpoint39.8 °F57.2 °F (4:22 am)9 °F (9:53 pm)
Humidity71.1 %94 % (1:01 am)32 % (2:53 pm)
Barometer29.28 in29.70 in (11:53 pm)29.04 in (7:53 am)
Wind Speed17.7 mph31.1 mph (5:05 am)
Wind Gust56.4 mph (5:05 am)
Weather ElementAverage
Visibility7.5 mi
Wind DirectionSW (226 °)

Weather ElementTotal
Precipitation2.00 in
Heating Degree Days19.2 (Base 65)
Averaged from 40 records on January 31, 2013
WEATHER CONDITIONS BREAKOUT
WIND DIRECTION BREAKOUT
WEATHER BY HOUR - JANUARY 31, 2013
[ °C ]   °F
Local TimeTemperatureDewpointHumidityBarometerVisibilityWind DirectionWind SpeedGust SpeedPrecipitationEventsConditions
1:01 AM55.4 °F53.6 °F94 %29.36 in5.0 miSouth (190°)24.2 mph36.8 mph0.00 inRainLight Rain
1:17 AM55.4 °F53.6 °F94 %29.34 in1.8 miSouth (190°)24.2 mph40.3 mph0.03 inOvercast
1:28 AM55.4 °F53.6 °F94 %29.33 in2.5 miSSW (200°)19.6 mph33.4 mph0.07 inRainHeavy Rain
1:41 AM57.2 °F53.6 °F88 %29.32 in3.0 miSouth (180°)20.7 mph35.7 mph0.08 inRainLight Rain
1:53 AM57.0 °F54.0 °F89 %29.31 in2.5 miSouth (190°)28.8 mph46.0 mph0.09 inOvercast
2:08 AM57.2 °F53.6 °F88 %29.29 in4.0 miSouth (190°)23.0 mph42.6 mphOvercast
2:18 AM57.2 °F53.6 °F88 %29.28 in5.0 miSouth (180°)25.3 mph36.8 mph0.00 inRainLight Rain
2:53 AM57.9 °F55.0 °F90 %29.23 in6.0 miSouth (190°)27.6 mph41.4 mph0.01 inRainLight Rain
3:53 AM59.0 °F55.0 °F87 %29.14 in7.0 miSouth (190°)26.5 mph41.4 mph0.03 inRainRain
4:22 AM59.0 °F57.2 °F94 %29.10 in2.5 miSouth (190°)23.0 mph41.4 mph0.12 inRainHeavy Rain
4:53 AM60.1 °F57.0 °F90 %29.06 in1.8 miSouth (190°)23.0 mph54.1 mph0.45 inRainHeavy Rain
5:05 AM60.8 °F57.2 °F88 %29.10 in2.5 miSSW (200°)31.1 mph56.4 mph0.09 inRainHeavy Rain
5:17 AM59.0 °F57.2 °F94 %29.11 in1.5 miSouth (190°)21.9 mph36.8 mph0.23 inRainHeavy Rain
5:20 AM59.0 °F55.4 °F88 %29.10 in2.0 miSouth (190°)21.9 mph34.5 mph0.23 inRainRain
5:28 AM59.0 °F55.4 °F88 %29.10 in9.0 miSouth (190°)16.1 mph32.2 mph0.23 inRainLight Rain
5:53 AM57.9 °F54.0 °F87 %29.10 in5.0 miSouth (190°)13.8 mph25.3 mph0.29 inRainRain
6:20 AM55.4 °F53.6 °F94 %29.06 in10.0 miSSE (160°)11.5 mph19.6 mph0.02 inRainLight Rain
6:53 AM54.0 °F52.0 °F93 %29.05 in10.0 miSouth (190°)11.5 mph0.03 inMostly Cloudy
7:03 AM53.6 °F51.8 °F94 %29.05 in10.0 miSouth (190°)12.7 mph20.7 mphMostly Cloudy
7:13 AM53.6 °F51.8 °F94 %29.05 in10.0 miSouth (190°)12.7 mph21.9 mph0.00 inRainLight Rain
7:30 AM53.6 °F51.8 °F94 %29.05 in10.0 miSouth (180°)13.8 mph25.3 mph0.00 inOvercast
7:53 AM53.1 °F51.1 °F93 %29.04 in10.0 miSouth (180°)13.8 mph31.1 mph0.00 inOvercast
8:12 AM53.6 °F46.4 °F77 %29.09 in10.0 miWest (260°)16.1 mph43.7 mph0.00 inRainLight Rain
8:24 AM53.6 °F44.6 °F72 %29.10 in10.0 miWest (270°)18.4 mph31.1 mph0.00 inOvercast
8:53 AM51.1 °F42.1 °F71 %29.13 in10.0 miWest (280°)12.7 mph25.3 mph0.00 inRainLight Rain
9:53 AM48.9 °F34.0 °F56 %29.20 in10.0 miWest (260°)15.0 mph33.4 mph0.00 inOvercast
10:53 AM48.0 °F26.1 °F42 %29.27 in10.0 miWNW (290°)16.1 mph33.4 mphClear
11:53 AM46.0 °F25.0 °F44 %29.30 in10.0 miWest (270°)17.3 mph28.8 mph
12:53 PM45.0 °F24.1 °F44 %29.34 in10.0 miWNW (300°)16.1 mph26.5 mphClear
1:53 PM46.0 °F21.0 °F37 %29.37 in10.0 miWest (270°)10.4 mph27.6 mphMostly Cloudy
2:53 PM44.1 °F16.0 °F32 %29.40 in10.0 miWest (260°)24.2 mph34.5 mphPartly Cloudy
3:53 PM43.0 °F16.0 °F34 %29.42 in10.0 miWest (280°)10.4 mph18.4 mphOvercast
4:53 PM41.0 °F12.9 °F32 %29.48 in10.0 miWNW (290°)12.7 mph27.6 mphMostly Cloudy
5:53 PM37.9 °F15.1 °F39 %29.54 in10.0 miWNW (290°)19.6 mph29.9 mphClear
6:53 PM36.0 °F17.1 °F46 %29.59 in10.0 miWNW (290°)18.4 mph29.9 mphPartly Cloudy
7:53 PM35.1 °F16.0 °F46 %29.63 in10.0 miWNW (290°)11.5 mph26.5 mphMostly Cloudy
8:53 PM33.1 °F10.0 °F38 %29.66 in10.0 miWSW (250°)15.0 mph26.5 mphClear
9:53 PM32.0 °F9.0 °F38 %29.68 in10.0 miWest (260°)9.2 mph20.7 mphClear
10:53 PM32.0 °F10.0 °F40 %29.68 in10.0 miWest (260°)5.8 mph23.0 mphPartly Cloudy
11:53 PM30.9 °F15.1 °F52 %29.70 in10.0 miWSW (240°)11.5 mph19.6 mphOvercast
Hourly data recorded from KMMK, located miles away from Wolcott, Connecticut







STORIES FROM OUR PARTNERS